Regional Weather Roundup
Issued by NWS

Home | Current Version | Previous Version | Graphics & Text | Print | Product List | Glossary On
Versions: 1 2 3 4 5 6 7 8 9 10 11 12 13 14 15 16 17 18 19 20 21 22 23 24 25 26 27 28 29 30 31 32 33 34 35 36 37 38 39 40 41 42 43 44 45 46 47 48 49 50
000
ASUS43 KIND 241709
RWRIN

WEATHER ROUNDUP FOR INDIANA
NATIONAL WEATHER SERVICE INDIANAPOLIS IN
100 PM EDT WED MAY 24 2017

NOTE: "FAIR" INDICATES FEW OR NO CLOUDS BELOW 12,000 FEET WITH NO
SIGNIFICANT WEATHER AND/OR OBSTRUCTIONS TO VISIBILITY.

* - STATION DOES NOT REPORT WEATHER SUCH AS PRECIPITATION OR FOG.

+ - STATION NOT QUALITY CONTROLLED BY THE NATIONAL WEATHER SERVICE.
    USE DATA WITH CAUTION...ESPECIALLY DEWPOINT AND RELATIVE
    HUMIDITY OBSERVATIONS.

INZ001>003-010>013-019-020-241800-
NORTHWEST INDIANA

CITY           SKY/WX    TMP DP  RH WIND       PRES   REMARKS
GARY /AIRPORT/ CLOUDY    55  52  88 N14       29.55F
KNOX *+        FAIR      68  43  40 CALM      29.50S
LA PORTE +     FAIR      66  57  72 N7        29.52F
MICHIGAN CITY+ FAIR      63  55  77 N8        29.53F
MONTICELLO +   LGT RAIN  62  56  81 NW6       29.49F
RENSSELAER +   CLOUDY    63  54  72 NW3       29.51F
VALPARAISO     PTSUNNY   65  56  72 NW8       29.52F

$$

LMZ046-743>745-241800-
SOUTHERN LAKE MICHIGAN

STATION/POSITION TIME  TEMP    WIND        PRES    WAVE
                       AIR SEA DIR/SP/G            HT
                 (UTC) (F)     (DEG/KT/KT) (MB)    (FT)
BURNS HARBOR     1640   52      30/ 10/ 14 1001.0F
MICHIGAN CITY    1640   53      10/ 12/ 14   N/A
5NW MICH CITY    1700   52 54   20/ 12/ 16   N/A     3

$$

INZ004-005-014>016-021>024-241800-
NORTH CENTRAL INDIANA

CITY           SKY/WX    TMP DP  RH WIND       PRES   REMARKS
ELKHART        MOSUNNY   70  55  60 NE9       29.51F
GOSHEN         PTSUNNY   70  53  54 E10       29.50F
LOGANSPORT +   FAIR      63  55  77 N6        29.50F
PERU/GRISSOM   PTSUNNY   65  56  74 NW5       29.49F
ROCHESTER +    FAIR      70  54  56 S3        29.50S
SOUTH BEND     PTSUNNY   69  56  62 E7        29.51F
WARSAW +       FAIR      68  52  56 E6        29.50S

$$

INZ006>009-017-018-025>027-241800-
NORTHEAST INDIANA

CITY           SKY/WX    TMP DP  RH WIND       PRES   REMARKS
ANGOLA *+      PTSUNNY   66  57  72 E7        29.52F
AUBURN +       FAIR      68  57  68 E9        29.52F
FORT WAYNE     CLOUDY    67  57  70 E9        29.50F
HUNTINGTON +   FAIR     N/A N/A N/A E7        29.50S
KENDALLVILLE + PTSUNNY   69  54  59 E7        29.52F

$$

INZ028-029-035-036-043>045-051>053-241800-
WEST CENTRAL INDIANA

CITY           SKY/WX    TMP DP  RH WIND       PRES   REMARKS
CRAWFORDSVL +  LGT RAIN  58  58 100 NW6       29.50F
GREENCASTLE +  CLOUDY    59  57  94 N5        29.50F FOG
LAFAYETTE      LGT RAIN  61  57  87 NW6       29.50F
TERRE HAUTE    LGT RAIN  60  56  86 N7        29.50F FOG

$$

INZ030>032-037>040-046>048-054>057-064-065-241800-
CENTRAL INDIANA

CITY           SKY/WX    TMP DP  RH WIND       PRES   REMARKS
CP ATTERBURY + LGT RAIN  61  57  88 NW8       29.48F
COLUMBUS       CLOUDY    63  57  82 NW7       29.47F
FISHERS *+     CLOUDY    61  59  94 CALM      29.49
FRANKFORT +    LGT RAIN  64  59  86 N6        29.52S
GREENWOOD *+   CLOUDY    60  57  91 W6        29.50S VSB 1/4
INDIANAPOLIS   LGT RAIN  61  57  87 NW7       29.49F FOG
-EAGLE CREEK   LGT RAIN  62  57  83 NW5       29.48F
KOKOMO +       CLOUDY    64  57  78 NW6       29.51S
MARION +       LGT RAIN  59  54  82 SE3       29.51S
MT COMFORT *+  CLOUDY    61  55  82 NE6       29.49F
SHELBYVILLE    CLOUDY    65  54  67 NE10      29.48F
ZIONSVILLE +   CLOUDY    61  56  85 NE5       29.51S

$$

INZ033-034-041-042-049-050-058-059-241800-
EAST CENTRAL INDIANA

CITY           SKY/WX    TMP DP  RH WIND       PRES   REMARKS
MUNCIE         TSTM      59  54  83 W22       29.47F
RICHMOND +     PTSUNNY   64  55  72 E13       29.48F

$$

INZ060-061-067>069-081>083-085>088-241800-
SOUTHWEST INDIANA

CITY           SKY/WX    TMP DP  RH WIND       PRES   REMARKS
EVANSVILLE     HVY RAIN  60  56  86 N5        29.49S FOG
HUNTINGBURG *+ LGT RAIN  59  58  96 N7        29.47F
WASHINGTON +   LGT RAIN  60  58  93 N6        29.48S

$$

INZ062-063-066-070>080-084-089>092-241800-
SOUTH CENTRAL AND SOUTHEAST INDIANA

CITY           SKY/WX    TMP DP  RH WIND       PRES   REMARKS
BLOOMINGTON    LGT RAIN  60  55  83 N6        29.47F
MADISON *+     PTSUNNY   64  59  82 N3        29.48F
NORTH VERNON + RAIN      63  57  82 N7        29.46F

$$





USA.gov is the U.S. government's official web portal to all federal, state and local government web resources and services.